Weather History for KDKK - May, 2013

Change the Weather History Date:

Sunday, May 19, 2013

  Actual Average (KBUF) Record (KBUF)
Temperature  
Mean Temperature 69 °F 58 °F  
Max Temperature 79 °F 68 °F 86 °F (1962)
Min Temperature 60 °F 48 °F 34 °F (2002)
Degree Days  
Heating Degree Days 0 8  
Month to date heating degree days 198  
Since 1 July heating degree days 6479  
Cooling Degree Days 4 1  
Month to date cooling degree days 7  
Year to date cooling degree days 10  
Growing Degree Days 19 (Base 50)    
Moisture  
Dew Point 56 °F    
Average Humidity 62    
Maximum Humidity 78    
Minimum Humidity 45    
Precipitation  
Precipitation 0.00 in 0.11 in 3.41 in (1986)
Month to date precipitation 2.01  
Year to date precipitation 13.56  
Snow  
Snow 0.00 in 0.00 in T in (2002)
Month to date snowfall 0.3  
Since 1 July snowfall 94.7  
Snow Depth -    
Sea Level Pressure  
Sea Level Pressure 30.04 in    
Wind  
Wind Speed 8 mph (SE)    
Max Wind Speed 14 mph    
Max Gust Speed 22 mph    
Visibility 10 miles    
Events      
T = Trace of Precipitation, MM = Missing Value Source: NWS Daily Summary

Daily Weather History Graph

Daily Weather History Graph

Search for Another Location

Airport or City:

Trip Planner

Search our weather history database for the weather conditions in past years. The results will help you decide how hot, cold, wet, or windy it might be!

Date:

Astronomy

May. 19, 2013 Rise Set
Actual Time 5:51 AM EDT 8:36 PM EDT
Civil Twilight 5:18 AM EDT 9:09 PM EDT
Nautical Twilight 4:37 AM EDT 9:50 PM EDT
Astronomical Twilight 3:50 AM EDT 10:38 PM EDT
Moon 2:31 PM EDT (5/19) 2:21 AM EDT (5/19)
Length of Visible Light 15h 50m
Length of Day
14h 45m
Waxing Gibbous, 65% of the Moon is Illuminated
May 19
Waxing Gibbous
May 25
Full
May 31
Last Quarter
Jun 8
New
Jun 16
First Quarter

Hourly Weather History & Observations

Time (EDT) Temp. Dew Point Humidity Pressure Visibility Wind Dir Wind Speed Gust Speed Precip Events Conditions
12:53 AM 64.9 °F 53.1 °F 65% 30.09 in 10.0 mi South 6.9 mph - N/A   Clear
1:53 AM 64.0 °F 53.1 °F 67% 30.08 in 10.0 mi South 10.4 mph 20.7 mph N/A   Mostly Cloudy
2:53 AM 63.0 °F 53.1 °F 70% 30.07 in 10.0 mi South 9.2 mph 19.6 mph N/A   Clear
3:53 AM 61.0 °F 53.1 °F 75% 30.08 in 10.0 mi Calm Calm - N/A   Partly Cloudy
4:53 AM 60.1 °F 53.1 °F 78% 30.08 in 10.0 mi South 5.8 mph - N/A   Clear
6:53 AM 62.1 °F 55.0 °F 78% 30.10 in 9.0 mi South 10.4 mph 20.7 mph N/A   Clear
8:53 AM 66.0 °F 57.0 °F 73% 30.12 in 10.0 mi South 11.5 mph 21.9 mph N/A   Overcast
9:53 AM 69.1 °F 57.9 °F 68% 30.10 in 10.0 mi South 12.7 mph 21.9 mph N/A   Clear
10:53 AM 72.0 °F 57.9 °F 61% 30.08 in 10.0 mi South 8.1 mph 20.7 mph N/A   Clear
11:53 AM 75.0 °F 57.0 °F 53% 30.07 in 10.0 mi ENE 3.5 mph - N/A   Clear
12:53 PM 78.1 °F 57.9 °F 50% 30.04 in 10.0 mi North 8.1 mph - N/A   Clear
1:53 PM 78.1 °F 57.0 °F 48% 30.02 in 10.0 mi North 8.1 mph - N/A   Partly Cloudy
3:53 PM 77.0 °F 54.0 °F 45% 29.99 in 10.0 mi North 10.4 mph - N/A   Partly Cloudy
4:53 PM 75.9 °F 55.9 °F 50% 29.99 in 10.0 mi NNE 10.4 mph - N/A   Clear
5:53 PM 73.9 °F 54.0 °F 50% 30.00 in 10.0 mi NNE 4.6 mph - N/A   Mostly Cloudy
6:53 PM 75.0 °F 57.0 °F 53% 29.99 in 10.0 mi SE 3.5 mph - N/A   Scattered Clouds
7:53 PM 73.9 °F 60.1 °F 62% 29.98 in 10.0 mi Calm Calm - N/A   Scattered Clouds
8:53 PM 73.0 °F 60.1 °F 64% 29.97 in 10.0 mi South 6.9 mph - N/A   Clear
9:53 PM 71.1 °F 57.9 °F 63% 29.99 in 10.0 mi South 13.8 mph 21.9 mph N/A   Clear
10:53 PM 68.0 °F 57.9 °F 70% 30.00 in 10.0 mi South 12.7 mph 21.9 mph N/A   Clear